www.pogodaiklimat.ru

Погода и климат >> Архив погоды >> Россия >> Краснодарский край >> Геленджик


АРХИВ ПОГОДЫ в Геленджике

Время (UTC), дата Ветер
(напр.,м/с)
 
Видим.   Явления Облачность Т
(С)
Тd
(С)
f
(%)
Тe
(С)
Тes
(С)
Комфортность P
(гПа)
Po
(гПа)
Тmin
(С)
Tmax
(С)
R
(мм)
R24
(мм)
S
(см)
15 12.09 В 1 50 км ясно +29.0 +13.1 38 +31 +31 жарко 1011.1 1009.4 +30.2
18 12.09 В 2 10 км ясно +27.2 +8.9 32 +27 +27 жарко 1011.2 1009.5
21 12.09 С 1 10 км ясно +22.8 +11.6 49 +25 +25 комфорт 1011.0 1009.3
00 13.09 В 1 10 км ясно +23.6 +11.1 45 +25 +25 комфорт 1011.4 1009.7
03 13.09 СВ 1 50 км ясно +21.4 +13.3 60 +24 +24 комфорт 1011.9 1010.2 +19.8
06 13.09 З 1 50 км ясно +29.2 +11.1 33 +30 +35 жарко 1012.0 1010.3
09 13.09 ЮВ 3 50 км ясно +28.2 +19.5 59 +34 +44 очень
душно
1012.4 1010.7
12 13.09 ЮВ 1 50 км ясно +28.1 +21.6 68 +36 +45 очень
душно
1012.7 1011.0
15 13.09 Ю 1 50 км 1/1 600 м
[Cu med, cong]
+26.0 +22.0 79 +34 +34 очень
душно
1012.7 1011.0 +29.7
18 13.09 штиль 0 10 км 3/1 600 м
[Sc Ac trans]
+23.8 +21.8 89 +31 +31 очень
душно
1013.4 1011.7
21 13.09 В 1 10 км 1/1 600 м
[Sc]
+22.7 +21.4 92 +30 +30 очень
душно
1014.0 1012.3
00 14.09 СВ 1 10 км 3/3 600 м
[Sc]
+21.8 +20.5 92 +28 +28 душно 1015.0 1013.3
03 14.09 СВ 2 20 км 1/1 600 м
[Sc]
+20.5 +19.4 93 +25 +25 комфорт 1016.1 1014.3 +20.5
06 14.09 С 1 50 км 1/1 600 м
[Cu hum]
+25.2 +18.8 68 +30 +35 душно 1017.4 1015.7 +19.8
09 14.09 ЮЗ 1 50 км 3/3 600 м
[Cu med, cong]
+27.0 +19.9 65 +33 +43 очень
душно
1017.6 1015.9
12 14.09 З 2 50 км 3/3 600 м
[Cu med, cong]
+27.0 +18.8 61 +32 +37 очень
душно
1016.9 1015.2
15 14.09 З 1 50 км 3/1 600 м
[Cu med, cong Ac trans]
+25.8 +16.7 57 +29 +30 душно 1015.7 1013.9 +27.4
18 14.09 В 1 10 км ясно +24.8 +12.8 47 +27 +27 жарко 1015.0 1013.3
21 14.09 СВ 3 10 км ясно +24.6 +9.9 39 +25 +25 комфорт 1014.1 1012.3
00 15.09 СВ 3 10 км ясно +24.8 +8.0 34 +25 +25 комфорт 1013.3 1011.5
03 15.09 СВ 4 50 км ясно +23.9 +8.3 37 +24 +24 комфорт 1012.7 1011.0 +22.8
06 15.09 Ю 1 50 км ясно +26.9 +14.3 46 +29 +35 жарко 1013.1 1011.4 +22.7
09 15.09 ЮЗ 1 50 км ясно +27.2 +15.4 48 +30 +44 душно 1012.7 1011.0
12 15.09 З 3 50 км ясно +27.3 +18.1 57 +32 +38 очень
душно
1012.0 1010.3
15 15.09 штиль 0 50 км ясно +26.7 +17.5 57 +31 +31 душно 1011.3 1009.6 +28.7
18 15.09 С 2
{10}
10 км ясно +26.3 +11.8 40 +28 +28 жарко 1012.9 1011.2
21 15.09 С 3
{10}
10 км ясно +26.4 +7.0 29 +26 +26 жарко 1013.5 1011.7
00 16.09 С 2 10 км ясно +25.8 +6.4 29 +25 +25 комфорт 1014.4 1012.7
03 16.09 ЮВ 1 50 км ясно +23.2 +5.5 32 +24 +24 комфорт 1015.8 1014.0 +23.2
06 16.09 С 1 50 км ясно +28.9 +8.5 28 +28 +34 жарко 1017.0 1015.3 +21.7
09 16.09 ЮЗ 1 50 км ясно +27.7 +14.9 46 +30 +44 жарко 1017.1 1015.4
12 16.09 ЮЗ 1 50 км ясно +28.6 +15.3 44 +31 +40 жарко 1016.2 1014.5
15 16.09 ЮВ 2 50 км ясно +25.8 +19.5 68 +31 +31 очень
душно
1015.4 1013.6 +29.2
18 16.09 СВ 1 10 км ясно +26.7 +10.8 37 +28 +28 жарко 1015.2 1013.5
21 16.09 ЮЗ 1 10 км ясно +27.5 +10.9 35 +28 +28 жарко 1014.8 1013.1
00 17.09 штиль 0 10 км ясно +23.1 +17.0 69 +28 +28 душно 1015.3 1013.5
03 17.09 СВ 1 50 км ясно +21.9 +18.1 79 +27 +27 душно 1015.5 1013.7 +21.9
06 17.09 штиль 0 50 км ясно +26.6 +15.6 51 +30 +36 душно 1015.9 1014.2 +21.0
09 17.09 Ю 1 50 км ясно +27.6 +21.0 67 +35 +48 очень
душно
1015.5 1013.7
12 17.09 ЮЗ 1 50 км ясно +27.0 +21.4 71 +34 +43 очень
душно
1014.6 1012.9
15 17.09 З 1 20 км ясно +25.6 +20.8 75 +32 +32 очень
душно
1013.3 1011.6 +28.2
18 17.09 С 1 10 км ясно +22.8 +21.4 92 +30 +30 очень
душно
1012.7 1010.9
21 17.09 штиль 0 10 км ясно +21.7 +20.8 95 +28 +28 душно 1011.8 1010.1
00 18.09 СВ 1 10 км 1/1 300 м
[Sc]
+23.1 +21.0 88 +31 +31 очень
душно
1012.5 1010.8
03 18.09 СВ 1 20 км 10/10 600 м
[Sc]
+22.4 +20.4 88 +29 +29 очень
душно
1012.5 1010.8 +21.2
06 18.09 В 1 20 км 10/10 600 м
[Sc]
+24.9 +20.1 75 +31 +31 очень
душно
1013.3 1011.6
09 18.09 Ю 1 20 км ясно +26.7 +20.2 68 +33 +46 очень
душно
1013.0 1011.3
12 18.09 ЮЗ 1 20 км ясно +27.4 +20.0 64 +34 +42 очень
душно
1012.2 1010.4
15 18.09 З 2 20 км ясно +25.0 +20.0 74 +31 +31 очень
душно
1012.1 1010.4 +27.9
18 18.09 З 1 10 км ясно +22.2 +19.9 87 +28 +28 душно 1012.5 1010.8
21 18.09 СВ 1 10 км ясно +20.8 +19.4 92 +26 +26 душно 1012.7 1010.9
00 19.09 СВ 1 10 км ясно +19.4 +18.3 93 +23 +23 комфорт 1013.0 1011.2
03 19.09 В 1 20 км ясно +19.3 +18.5 95 +23 +23 комфорт 1013.1 1011.3 +19.0
06 19.09 СЗ 1 10 км ясно +24.7 +19.3 72 +30 +35 очень
душно
1014.0 1012.3
09 19.09 ЮЗ 1 10 км ясно +26.8 +20.8 70 +34 +46 очень
душно
1013.5 1011.8
12 19.09 З 3 10 км ясно +26.9 +20.5 68 +33 +39 очень
душно
1012.6 1010.9

 

Местоположение метеостанции Геленджик (Краснодарский край, Россия): широта 44.57 долгота 38.08 высота над уровнем моря 15 м.

В архиве по умолчанию представлена погода в Геленджике за последнюю неделю. Архивные данные за месяц целиком и за предыдущие месяцы, начиная с января 2011 года, Вы можете получить, выбрав интересующий диапазон дат из раскрывающегося списка и нажав кнопку "Ввод!".

Внимание! Время в таблицах - всемирное. Для получения местного времени необходимо прибавить поправку, которая в Геленджике равна 3 ч.

Смотрите также архив погоды в соседних городах и на ближайших метеорологических станциях:

Погода в Новороссийске (Краснодарский край, Россия) (25 км)
Погода в Крымске (Краснодарский край, Россия) (39 км)
Погода в Джубге (Краснодарский край, Россия) (57 км)
Погода в Анапе (Краснодарский край, Россия) (72 км)
Погода в Славянске-на-Кубани (Краснодарский край, Россия) (79 км)
Погода в Горячем Ключе (Краснодарский край, Россия) (81 км)
Погода в Краснодаре (Краснодарский край, Россия) (92 км)
Погода в Туапсе (Краснодарский край, Россия) (95 км)
Погода в Горном (Краснодарский край, Россия) (100 км)
Погода в Темрюке (Краснодарский край, Россия) (100 км)

Пояснения к столбцам:

Ветер - указаны скорость ветра в м/с - средняя за 10 мин, порывы в срок и между сроками (в фигурных скобках) и направление, откуда дует ветер: С - северный, СВ - северо-восточный, В - восточный, ЮВ - юго-восточный, Ю - южный, ЮЗ - юго-западный, З - западный, СЗ - северо-западный.
Видимость - горизонтальная дальность видимости в метрах или километрах. При видимости от 1 до 10 км при отсутствии осадков обычно наблюдается дымка, при ухудшении видимости до 1 км и менее - туман. В сухую погоду видимость может ухудшаться дымом, пылью или мглою.
Явления - указаны атмосферные явления, наблюдавшиеся в срок или в последний час перед сроком; фигурными скобками обозначены явления, наблюдавшиеся между сроками (за 1-3 часа до срока); квадратными скобками обозначены град или гололедные отложения с указанием их диаметра в мм.
Облачность - указаны через наклонную черту общая и нижняя облачность в баллах и высота нижней границы облаков в метрах; квадратными скобками обозначены формы облаков: Ci - перистые, Cs - перисто-слоистые, Cc - перисто-кучевые, Ac - высококучевые, As - высокослоистые, Sc - слоисто-кучевые, Ns - слоисто-дождевые, Cu - кучевые, Cb - кучево-дождевые. Подробнее классификацию облаков см. в Атласе облаков (PDF).
T - Температура воздуха - температура, измеренная на высоте 2 м над землей.
Td - Температура точки росы - температура, при понижении до которой содержащийся в воздухе водяной пар достигнет насыщения.
f - Относительная влажность воздуха - влажноcть воздуха, измеренная на высоте 2 м над землей.
Te - Эффективная температура - температура, которую ощущает одетый по сезону человек в тени. Характеристика душности погоды. При расчете учитывается влияние влажности воздуха и скорости ветра на теплоощущения человека.
Tes - Эффективная температура на солнце - температура, которую ощущает человек, с поправкой на солнечный нагрев. Характеристика знойности погоды. Зависит от высоты солнца над горизонтом, облачности и скорости ветра. Ночью, в пасмурную погоду, а также при ветре 12 м/с и более поправка равна нулю.
P - Атмосферное давление - приведенное к уровню моря атмосферное давление.
Po - Атмосферное давление - измеренное на уровне метеостанции атмосферное давление.
Tmin - Минимальная температура - минимум температуры воздуха на высоте 2 м над землей.
Tmax - Максимальная температура - максимум температуры воздуха на высоте 2 м над землей.
R - Количество осадков - Количество выпавших осадков за период времени, мм. При наведении курсора мыши на число - период времени, за который выпало указанное количество осадков.
R24 - Количество осадков - Количество выпавших осадков за 24 часа, мм.
S - Снежный покров - Высота снежного покрова, см. При наведении курсора мыши на число - состояние снежного покрова и степень покрытия местности в баллах.